EN

Hourly Weather Torzewo

Today, 13 May, Thursday

Time Temperature Precipitation Wind Pressure Humidity
00:00 +14°C° 0 mm 5 mps 745 mmHg 89%
01:00 +13°C° 0 mm 4 mps 745 mmHg 91%
02:00 +12°C° 0 mm 4 mps 744 mmHg 91%
03:00 +11°C° 0 mm 4 mps 744 mmHg 91%
04:00 +11°C° 0 mm 4 mps 744 mmHg 91%
05:00 +12°C° 0 mm 4 mps 744 mmHg 86%
06:00 +12°C° 0 mm 4 mps 744 mmHg 80%
07:00 +13°C° 0 mm 5 mps 743 mmHg 75%
08:00 +15°C° 0 mm 5 mps 743 mmHg 69%
09:00 +17°C° 0 mm 4 mps 743 mmHg 63%
10:00 +18°C° 0 mm 4 mps 743 mmHg 57%
11:00 +19°C° 0 mm 4 mps 742 mmHg 55%
12:00 +19°C° 0 mm 4 mps 742 mmHg 52%
13:00 +20°C° 0 mm 4 mps 742 mmHg 49%
14:00 +20°C° 0 mm 4 mps 742 mmHg 51%
15:00 +20°C° 0 mm 4 mps 741 mmHg 52%
16:00 +20°C° 0 mm 3 mps 741 mmHg 53%
17:00 +18°C° 0 mm 3 mps 741 mmHg 59%
18:00 +17°C° 0 mm 2 mps 741 mmHg 66%
19:00 +15°C° 0 mm 2 mps 741 mmHg 73%
20:00 +14°C° 0 mm 2 mps 741 mmHg 76%
21:00 +13°C° 0 mm 2 mps 741 mmHg 79%
22:00 +12°C° 0 mm 1 mps 741 mmHg 82%
23:00 +13°C° 0 mm 1 mps 741 mmHg 81%

Tomorrow, 14 May, Friday

Time Temperature Precipitation Wind Pressure Humidity
00:00 +13°C° 0 mm 1 mps 741 mmHg 81%
01:00 +13°C° 0 mm 1 mps 741 mmHg 80%
02:00 +13°C° 0 mm 1 mps 741 mmHg 81%
03:00 +13°C° 0 mm 1 mps 741 mmHg 82%
04:00 +13°C° 0 mm 1 mps 741 mmHg 83%
05:00 +13°C° 0 mm 1 mps 741 mmHg 83%
06:00 +14°C° 0 mm 2 mps 742 mmHg 83%
07:00 +14°C° 0 mm 2 mps 742 mmHg 82%
08:00 +15°C° 0.1 mm 2 mps 742 mmHg 80%
09:00 +16°C° 0.1 mm 3 mps 742 mmHg 78%
10:00 +17°C° 0.1 mm 4 mps 743 mmHg 76%
11:00 +15°C° 0.5 mm 4 mps 743 mmHg 78%
12:00 +15°C° 0.5 mm 5 mps 743 mmHg 79%
13:00 +15°C° 0.5 mm 6 mps 743 mmHg 81%
14:00 +15°C° 0.2 mm 6 mps 744 mmHg 82%
15:00 +14°C° 0.2 mm 5 mps 744 mmHg 82%
16:00 +14°C° 0.2 mm 5 mps 744 mmHg 83%
17:00 +13°C° 0 mm 5 mps 744 mmHg 84%
18:00 +13°C° 0 mm 5 mps 744 mmHg 86%
19:00 +12°C° 0 mm 5 mps 745 mmHg 87%
20:00 +11°C° 0 mm 4 mps 745 mmHg 88%
21:00 +11°C° 0 mm 4 mps 745 mmHg 89%
22:00 +10°C° 0 mm 4 mps 745 mmHg 90%
23:00 +10°C° 0 mm 4 mps 745 mmHg 90%

Day after tomorrow, 15 May, Saturday

Time Temperature Precipitation Wind Pressure Humidity
00:00 +10°C° 0 mm 4 mps 745 mmHg 90%
01:00 +10°C° 0 mm 3 mps 746 mmHg 91%
02:00 +10°C° 0 mm 3 mps 746 mmHg 91%
03:00 +10°C° 0 mm 3 mps 746 mmHg 91%
04:00 +10°C° 0 mm 3 mps 746 mmHg 92%
05:00 +10°C° 0.1 mm 3 mps 746 mmHg 92%
06:00 +10°C° 0.1 mm 3 mps 746 mmHg 92%
07:00 +10°C° 0.1 mm 3 mps 747 mmHg 92%
08:00 +11°C° 0 mm 3 mps 747 mmHg 87%
09:00 +12°C° 0 mm 4 mps 747 mmHg 83%
10:00 +13°C° 0 mm 4 mps 747 mmHg 78%
11:00 +14°C° 0 mm 4 mps 747 mmHg 71%
12:00 +17°C° 0 mm 3 mps 747 mmHg 64%
13:00 +18°C° 0 mm 3 mps 747 mmHg 57%
14:00 +18°C° 0 mm 3 mps 747 mmHg 58%
15:00 +18°C° 0 mm 2 mps 746 mmHg 58%
16:00 +18°C° 0 mm 2 mps 746 mmHg 59%
17:00 +17°C° 0 mm 2 mps 746 mmHg 64%
18:00 +16°C° 0 mm 2 mps 746 mmHg 69%
19:00 +15°C° 0 mm 2 mps 746 mmHg 74%
20:00 +14°C° 0.1 mm 2 mps 746 mmHg 76%
21:00 +14°C° 0.1 mm 2 mps 746 mmHg 79%
22:00 +13°C° 0.1 mm 2 mps 746 mmHg 82%
23:00 +13°C° 0.3 mm 2 mps 745 mmHg 86%

16 May, Sunday

Time Temperature Precipitation Wind Pressure Humidity
00:00 +13°C° 0.3 mm 2 mps 745 mmHg 90%
01:00 +12°C° 0.3 mm 2 mps 745 mmHg 94%
02:00 +12°C° 0.3 mm 2 mps 745 mmHg 95%
03:00 +12°C° 0.3 mm 2 mps 745 mmHg 96%
04:00 +12°C° 0.3 mm 2 mps 744 mmHg 97%
05:00 +13°C° 0.1 mm 2 mps 745 mmHg 94%
06:00 +13°C° 0.1 mm 2 mps 745 mmHg 92%
07:00 +13°C° 0.1 mm 2 mps 745 mmHg 90%
08:00 +14°C° 0.1 mm 2 mps 745 mmHg 83%
09:00 +16°C° 0.1 mm 3 mps 745 mmHg 77%
10:00 +17°C° 0.1 mm 3 mps 745 mmHg 70%
11:00 +17°C° 0.3 mm 3 mps 745 mmHg 69%
12:00 +17°C° 0.3 mm 3 mps 745 mmHg 68%
13:00 +17°C° 0.3 mm 3 mps 745 mmHg 67%
14:00 +16°C° 0.6 mm 3 mps 745 mmHg 72%
15:00 +14°C° 0.6 mm 3 mps 744 mmHg 76%
16:00 +13°C° 0.6 mm 3 mps 744 mmHg 81%
17:00 +13°C° 0.7 mm 3 mps 744 mmHg 84%
18:00 +13°C° 0.7 mm 2 mps 744 mmHg 86%
19:00 +13°C° 0.7 mm 2 mps 744 mmHg 89%
20:00 +12°C° 0 mm 2 mps 745 mmHg 89%
21:00 +10°C° 0 mm 2 mps 745 mmHg 90%
22:00 +10°C° 0 mm 2 mps 745 mmHg 90%
23:00 +9°C° 0 mm 2 mps 745 mmHg 91%

17 May, Monday

Time Temperature Precipitation Wind Pressure Humidity
00:00 +9°C° 0 mm 2 mps 745 mmHg 92%
01:00 +8°C° 0 mm 2 mps 745 mmHg 92%
02:00 +8°C° 0 mm 2 mps 745 mmHg 93%
03:00 +8°C° 0 mm 2 mps 745 mmHg 93%
04:00 +7°C° 0 mm 2 mps 745 mmHg 93%
05:00 +9°C° 0 mm 2 mps 745 mmHg 90%
06:00 +10°C° 0 mm 2 mps 745 mmHg 87%
07:00 +13°C° 0 mm 2 mps 746 mmHg 83%
08:00 +14°C° 0.1 mm 2 mps 746 mmHg 79%
09:00 +16°C° 0.1 mm 3 mps 746 mmHg 74%
10:00 +17°C° 0.1 mm 3 mps 745 mmHg 69%
11:00 +17°C° 0.4 mm 2 mps 745 mmHg 68%
12:00 +18°C° 0.4 mm 2 mps 745 mmHg 66%
13:00 +18°C° 0.4 mm 2 mps 745 mmHg 65%
14:00 +18°C° 0.5 mm 2 mps 745 mmHg 66%
15:00 +18°C° 0.5 mm 2 mps 745 mmHg 67%
16:00 +18°C° 0.5 mm 2 mps 745 mmHg 68%
17:00 +16°C° 0.3 mm 2 mps 745 mmHg 72%
18:00 +15°C° 0.3 mm 1 mps 745 mmHg 77%
19:00 +14°C° 0.3 mm 1 mps 745 mmHg 81%
20:00 +13°C° 0 mm 2 mps 745 mmHg 84%
21:00 +13°C° 0 mm 2 mps 745 mmHg 87%
22:00 +12°C° 0 mm 2 mps 745 mmHg 89%
23:00 +10°C° 0 mm 2 mps 745 mmHg 90%

18 May, Tuesday

Time Temperature Precipitation Wind Pressure Humidity
00:00 +10°C° 0 mm 2 mps 745 mmHg 91%
01:00 +10°C° 0 mm 2 mps 745 mmHg 92%
02:00 +10°C° 0 mm 2 mps 745 mmHg 92%
03:00 +9°C° 0 mm 2 mps 745 mmHg 93%
04:00 +9°C° 0 mm 3 mps 745 mmHg 93%
05:00 +10°C° 0 mm 3 mps 746 mmHg 91%
06:00 +11°C° 0 mm 3 mps 746 mmHg 88%
07:00 +11°C° 0 mm 4 mps 746 mmHg 86%
08:00 +12°C° 0.2 mm 4 mps 747 mmHg 84%
09:00 +12°C° 0.2 mm 4 mps 747 mmHg 82%
10:00 +13°C° 0.2 mm 4 mps 747 mmHg 80%
11:00 +13°C° 0.6 mm 4 mps 747 mmHg 79%
12:00 +13°C° 0.6 mm 4 mps 747 mmHg 79%
13:00 +14°C° 0.6 mm 4 mps 747 mmHg 78%
14:00 +13°C° 0.6 mm 4 mps 748 mmHg 79%
15:00 +13°C° 0.6 mm 4 mps 748 mmHg 81%
16:00 +13°C° 0.6 mm 4 mps 748 mmHg 82%
17:00 +12°C° 0.5 mm 4 mps 748 mmHg 83%
18:00 +12°C° 0.5 mm 5 mps 749 mmHg 84%
19:00 +10°C° 0.5 mm 5 mps 749 mmHg 85%
20:00 +10°C° 0.2 mm 5 mps 749 mmHg 86%
21:00 +10°C° 0.2 mm 4 mps 749 mmHg 87%
22:00 +10°C° 0.2 mm 4 mps 750 mmHg 89%
23:00 +10°C° 0.1 mm 4 mps 750 mmHg 90%
Show more

We Need Your Consent

Meteoprog and our Service Providers may store and access personal data such as cookies, device identifiers or other similar technologies on your device and process such data to personalise content and ads, as well as provide social media features and to analyse the traffic.

  • Store and/or access information on your device

    Cookies, device identifiers or other information can be stored or accessed on your device for the purposes indicated above.

  • Personalised ads and content, ad and content measurement, audience insights, and products development

    Ads and content can be personalised based on a profile. More data can be added to better personalise ads and content. Ad and content performance can be measured. Insights about the audience who saw the ads and content can be derived. Such data can be used to develop or improve user’s experience, systems and software.

By clicking ‘I Agree’ you will allow the use of indicated cookies, device identifiers, web beacons or other similar technologies. Your settings can be changed in the browser on your device.

For certain purposes, legitimate interests may be relied on, rather than consent. You can read more about this in our Privacy and Cookie Policy.